Home   Weather   Fort Myers   Past weeks
Flag for USA

Past Weather in Fort Myers, Florida, USA — Yesterday and Last 2 Weeks

Now
75 °F

Passing clouds.


Feels Like: 74 °F
Forecast: 88 / 74 °F
Wind: No wind

Location: Page Field

Current Time: Oct 14, 2019 at 6:34:31 am

Latest Report: Oct 14, 2019 at 5:53 am


Visibility: 10 mi

Pressure: 30.01 "Hg

Humidity: 88%

Dew Point: 71 °F

Location of Fort MyersLocation

Past Weather in Fort Myers — Graph

°F

Fort Myers Temperature Yesterday

Maximum temperature yesterday: 88 °F (at 1:53 pm)
Minimum temperature yesterday: 72 °F (at 6:53 am)
Average temperature yesterday: 80 °F

High & Low Weather Summary for the Past Weeks

 TemperatureHumidityPressure
High93 °F (Sep 30, 2:53 pm)94% (Oct 5, 6:53 am)30.10 "Hg (Oct 5, 6:53 am)
Low72 °F (Oct 4, 6:53 am)41% (Oct 4, 4:53 pm)29.81 "Hg (Oct 7, 1:53 pm)
Average81 °F72%29.95 "Hg
* Reported Sep 29 4:53 am — Oct 14 4:53 am, Fort Myers. Weather by CustomWeather, © 2019

Note: Actual official high and low records may vary slightly from our data, if they occured in-between our weather recording intervals... More about our weather records

Advertising

Fort Myers Weather History for the Previous 24 Hours

Scroll right to see more
 ConditionsComfort  
Time TempWeatherWind HumidityBarometerVisibility
4:53 am
Mon, Oct 14
76 °FOvercast.3 mph85%30.00 "Hg10 mi
3:53 am76 °FPassing clouds.6 mph85%30.00 "Hg10 mi
2:53 am76 °FMostly cloudy.5 mph88%30.01 "Hg10 mi
1:53 am76 °FClear.3 mph85%30.02 "Hg10 mi
12:53 am77 °FClear.7 mph82%30.03 "Hg10 mi
11:53 pm
Sun, Oct 13
78 °FOvercast.7 mph79%30.03 "Hg10 mi
10:53 pm79 °FPartly cloudy.9 mph77%30.03 "Hg10 mi
9:53 pm80 °FMostly cloudy.10 mph74%30.03 "Hg10 mi
8:53 pm81 °FPassing clouds.12 mph72%30.00 "Hg10 mi
7:53 pm83 °FPassing clouds.8 mph65%29.98 "Hg10 mi
6:53 pm85 °FMostly cloudy.9 mph59%29.97 "Hg10 mi
5:53 pm87 °FScattered clouds.12 mph55%29.96 "Hg10 mi
4:53 pm88 °FCloudy.9 mph55%29.96 "Hg10 mi
3:53 pm88 °FPartly sunny.5 mph55%29.96 "Hg10 mi
2:53 pm88 °FMore clouds than sun.7 mph55%29.98 "Hg10 mi
1:53 pm88 °FPartly sunny.7 mph55%29.99 "Hg10 mi
12:53 pm87 °FMore clouds than sun.6 mph57%30.01 "Hg10 mi
11:53 am85 °FOvercast.9 mph59%30.03 "Hg10 mi
10:53 am84 °FOvercast.9 mph61%30.04 "Hg10 mi
9:53 am80 °FSunny.7 mph67%30.03 "Hg10 mi
8:53 am77 °FPartly sunny.7 mph71%30.01 "Hg10 mi
7:53 am73 °FSunny.5 mph79%29.99 "Hg10 mi
6:53 am72 °FClear.5 mph81%29.98 "Hg10 mi
Weather by CustomWeather, © 2019

See weather overview